This is the latest recevied weather packets stored in our database for station/object KI5MKI. If no packets are shown the sender has not sent any weather packets the latest 10 day(s).
| Time | Temp. | Humidity | Pressure | Rain* | Wind** | Luminosity | Snow |
|---|---|---|---|---|---|---|---|
| 1777640147 | 12.78° C | 82% | 1017 hPa | 0 mm | - | 26 W/m² | - |
| 1777639844 | 12.78° C | 81% | 1016.9 hPa | 0 mm | - | 24 W/m² | - |
| 1777639541 | 12.78° C | 81% | 1016.7 hPa | 0 mm | - | 27 W/m² | - |
| 1777639238 | 12.78° C | 82% | 1016.8 hPa | 0 mm | - | 28 W/m² | - |
| 1777638934 | 12.78° C | 83% | 1017 hPa | 0 mm | - | 28 W/m² | - |
| 1777638630 | 12.78° C | 85% | 1016.6 hPa | 0 mm | - | 25 W/m² | - |
| 1777638327 | 12.78° C | 85% | 1016.6 hPa | 0 mm | - | 25 W/m² | - |
| 1777638023 | 12.78° C | 85% | 1016.5 hPa | 0 mm | - | 22 W/m² | - |
| 1777637720 | 12.78° C | 85% | 1016.4 hPa | 0 mm | - | 16 W/m² | - |
| 1777637416 | 12.78° C | 87% | 1016.5 hPa | 0 mm | - | 15 W/m² | - |
| 1777637113 | 12.78° C | 87% | 1016.4 hPa | 0 mm | - | 9 W/m² | - |
| 1777636810 | 12.78° C | 88% | 1016 hPa | 0.51 mm | - | 8 W/m² | - |
| 1777636506 | 12.78° C | 88% | 1016.4 hPa | 0.51 mm | - | 5 W/m² | - |
| 1777636201 | 12.78° C | 88% | 1016.5 hPa | 0 mm | - | 2 W/m² | - |
| 1777635896 | 12.78° C | 88% | 1016.6 hPa | 0 mm | - | 1 W/m² | - |
| 1777635593 | 12.78° C | 88% | 1016.7 hPa | 0 mm | - | 1 W/m² | - |
| 1777635290 | 12.78° C | 88% | 1016.7 hPa | 0 mm | - | 0 W/m² | - |
| 1777634987 | 12.78° C | 87% | 1016.5 hPa | 0 mm | - | 0 W/m² | - |
| 1777634683 | 12.78° C | 87% | 1016.6 hPa | 0 mm | - | 0 W/m² | - |
| 1777634381 | 12.78° C | 87% | 1016.4 hPa | 0 mm | - | 0 W/m² | - |
| 1777634077 | 12.78° C | 86% | 1016.3 hPa | 0 mm | - | 0 W/m² | - |
| 1777633774 | 12.78° C | 86% | 1016.3 hPa | 0 mm | - | 0 W/m² | - |
| 1777633472 | 12.78° C | 86% | 1016.3 hPa | 0 mm | - | 0 W/m² | - |
| 1777633170 | 12.78° C | 85% | 1016.2 hPa | 0 mm | - | 0 W/m² | - |
| 1777632866 | 12.78° C | 85% | 1016.2 hPa | 0 mm | - | 0 W/m² | - |
* Rain latest hour (hover to see other rain measurements)
** Current wind speed in m/s (hover to see current wind gust speed)